Location: Marsån
(66.4167°N, 22.2833°E)
Time: 10:30:03
(UTC+00:00)

Geosat - Pass Details

Date: 24 February 2024
Orbit: 760 x 763 km, 108.1° (Epoch: 15 April)

Event Time Altitude Azimuth Distance (km) Brightness Sun altitude
Exits shadow 17:54:17 17° 142° (SE) 1,873 5.6 -15.6°
Maximum altitude 17:58:13 72° 225° (SW) 807 4.2 -16.0°
Drops below altitude 10° 18:03:15 10° 310° (NW) 2,311 7.5 -16.5°
Sets 18:05:33 0° 313° (NW) 3,241 8.4 -16.7°
